Temp
9 9 9 9 9 9 9 8 8 8 8 9 8 8 8 8 8 8 8 8 8 8 8 8 8 8 9 8 8 11 11 11 10 10 10 9 9 8 8 8 8 7 8 8 9 8 8
9 9 9 9 9 9 8 8 8 8 8 8 8 8 8 8 8 7 7 7 8 8 8 8 8 8 8 7 11 11 11 10 10 10 9 9 8 8 7 7 7 7 7 7 7 8 8
9 9 9 9 8 8 8 8 9 9 9 8 8 8 8 8 8 7 8 8 8 7 7 8 8 7 7 7 10 10 10 10 10 10 8 9 9 8 7 7 8 7 6 6 7 8 8
9 9 9 8 9 9 9 9 9 9 9 9 8 8 7 7 7 7 7 8 7 7 7 7 7 7 6 9 9 9 9 9 9 9 10 9 9 8 8 7 7 7 6 7 10 9 9
9 9 9 9 9 9 8 9 9 9 8 9 8 8 8 7 8 8 7 8 8 7 7 7 7 7 5 9 9 9 9 9 9 9 9 9 9 7 7 5 3 3 4 6 8 8 9
10 10 10 10 10 10 9 8 9 9 9 8 8 9 9 9 7 7 9 9 8 7 7 7 7 6 7 8 9 9 9 9 9 9 8 8 6 6 7 6 5 2 4 6 7 10 8
10 10 10 11 11 10 10 9 9 9 9 9 8 9 9 9 8 8 9 8 6 6 6 6 7 6 9 9 9 8 9 9 9 8 6 7 6 6 5 6 7 6 6 6 6 8 7
11 11 11 10 11 11 11 9 9 9 9 9 9 9 9 9 8 9 9 6 6 6 5 6 6 6 8 9 8 8 9 8 7 7 7 7 6 7 7 6 6 6 6 7 7 8 7
11 11 11 11 10 10 10 10 10 9 9 9 8 9 8 9 9 8 7 6 6 6 4 6 7 7 7 8 8 7 8 7 6 7 8 7 8 8 7 6 6 7 6 7 7 7 7
11 10 10 10 10 10 10 10 10 10 9 9 9 8 8 9 9 7 7 7 7 6 5 7 7 8 8 8 7 9 8 7 7 7 8 7 9 8 7 6 6 7 8 7 7 7 8
10 9 9 9 10 10 10 10 10 10 9 9 9 8 8 8 7 6 7 7 7 6 6 8 7 8 8 8 8 8 8 8 8 8 7 9 8 7 6 6 6 7 8 7 7 7 7
9 8 8 8 8 9 9 9 10 10 10 10 9 8 8 8 7 7 6 7 7 4 4 6 7 8 7 7 8 8 8 8 9 7 8 8 10 9 9 8 7 9 8 8 7 8 9
7 7 7 7 7 7 8 8 9 9 9 9 9 8 8 7 6 7 7 5 4 4 9 8 8 8 7 7 8 8 8 7 8 9 8 9 9 9 9 8 8 8 8 7 7 10 8
6 6 6 6 6 6 6 7 8 9 9 9 8 8 8 7 7 7 7 4 3 6 8 8 9 8 7 8 7 7 8 8 7 7 8 9 9 9 10 9 10 8 9 6 7 9 10
5 5 6 5 5 5 5 6 6 8 8 9 8 8 7 7 7 7 3 1 3 6 7 7 8 8 8 9 7 8 8 8 8 7 9 9 9 11 10 11 12 10 9 11 7 8 8
5 5 5 4 4 4 4 5 6 8 8 9 8 7 6 7 7 7 2 6 6 7 7 8 7 7 5 5 6 7 7 9 8 8 7 8 8 9 10 11 10 11 9 8 9 8 9
4 4 4 4 4 4 4 5 6 7 7 7 8 5 6 7 6 2 1 4 6 7 7 7 6 6 4 4 4 6 6 8 8 7 7 7 7 8 9 10 10 10 8 8 7 7 8
4 4 4 4 4 4 4 5 5 7 8 8 6 5 7 7 3 3 3 5 6 6 8 8 7 6 4 5 5 3 5 7 7 6 7 7 7 7 8 9 9 9 8 8 7 6 7
4 4 4 4 4 4 4 4 5 6 6 8 5 6 6 6 2 -1 4 5 5 6 6 7 6 7 6 5 6 5 6 7 7 6 6 6 7 7 6 8 8 7 7 8 7 6 6
4 4 4 4 4 4 4 4 5 6 6 7 5 2 2 1 1 3 3 4 6 6 4 5 5 5 5 4 4 5 5 7 6 6 9 6 5 7 7 7 8 7 8 8 6 6 6
4 4 4 4 4 4 4 5 5 6 6 6 1 1 3 0 -1 4 3 2 3 3 4 4 4 4 3 3 4 4 4 4 6 7 6 5 5 6 7 7 6 6 6 7 6 6 5
4 3 4 4 4 4 4 4 5 5 6 4 0 2 2 1 2 4 4 -1 2 3 2 2 3 2 2 2 3 3 4 4 4 5 5 4 4 5 5 6 6 6 6 6 6 6 5
3 4 4 4 4 4 4 4 5 5 6 3 3 3 2 -0 -1 -2 -1 1 1 2 2 3 2 1 2 3 3 3 3 3 3 4 4 4 3 4 5 5 5 4 6 6 6 4 4
3 3 4 4 4 4 4 4 4 4 5 4 3 2 2 -2 -2 -2 2 2 2 2 2 3 2 0 2 2 1 1 1 2 3 3 3 3 4 4 3 3 0 6 5 5 3 1 0
3 4 4 3 3 3 2 3 3 4 4 4 4 3 -1 -3 -0 1 -1 -0 1 1 1 1 2 2 0 1 -1 -2 -1 0 1 1 2 3 4 4 3 2 4 5 4 4 3 -0 -2
3 3 3 3 2 2 2 3 3 3 3 4 4 3 2 -1 -2 2 1 -2 -2 -3 -2 -0 2 1 1 -0 -4 -4 -2 -2 0 1 1 2 2 3 -1 3 2 2 -0 -2 -1 1 -3
3 2 2 2 2 2 2 3 3 3 3 3 4 3 2 2 0 -0 0 2 -1 -0 0 -4 -2 0 -1 -4 -7 -3 -2 -0 2 1 2 1 1 2 2 4 2 -4 -4 -2 4 -2 -4
2 2 2 2 2 2 2 2 2 3 3 3 3 4 3 1 0 1 2 1 2 1 1 -0 -0 -2 -2 -3 -1 1 -3 -3 -3 -3 -0 0 1 2 0 -0 2 -6 -3 -3 -7 -7 -7
2 2 2 2 2 2 2 2 3 3 3 3 3 3 3 2 2 2 2 2 2 2 1 1 1 -1 -1 -1 0 -0 1 -6 -5 -2 -2 -1 -4 -1 -2 -2 -6 -7 -8 -8 -9 -9 -8
Height
851 849 847 846 843 841 839 837 834 832 830 827 824 821 817 813 810 807 804 801 800 799 797 796 795 794 792 790 783 777 778 779 780 782 782 784 786 788 788 789 788 791 787 784 782 783 783
852 850 849 846 844 842 839 837 834 833 830 828 825 822 819 815 811 807 803 800 798 796 794 793 794 794 793 795 779 779 779 780 780 781 782 784 785 786 788 788 790 789 787 784 779 777 779
852 851 849 846 844 841 839 837 835 832 830 827 823 820 816 812 808 805 801 798 795 793 793 792 792 792 793 787 779 779 780 782 783 782 782 783 784 786 788 790 788 788 789 781 773 772 772
852 851 849 847 844 842 840 837 835 832 829 826 823 818 814 810 807 804 800 795 793 791 790 790 790 791 788 779 779 779 781 783 784 784 784 783 783 786 787 789 788 790 790 785 763 768 767
853 852 849 846 843 842 840 837 834 832 829 825 821 817 813 810 805 800 796 792 789 787 788 789 791 790 786 777 777 778 781 783 785 785 785 785 784 787 789 798 809 807 805 791 775 765 766
853 851 848 846 844 841 839 837 834 830 828 824 820 816 812 807 802 798 793 789 787 787 787 788 788 793 781 777 775 775 778 781 784 786 786 787 789 789 787 791 805 814 804 794 783 764 767
852 850 848 845 843 841 838 835 832 830 827 823 820 815 810 807 802 798 793 790 791 790 789 784 780 780 776 776 775 776 777 780 782 785 791 788 791 785 785 781 781 785 787 791 783 767 770
851 848 845 843 841 839 836 833 830 828 826 823 819 813 809 806 800 798 797 797 802 803 794 782 781 781 778 777 776 776 778 782 783 783 787 786 782 775 777 781 783 785 785 782 773 763 772
849 846 844 841 839 837 835 832 829 827 823 820 817 814 809 804 800 799 799 802 801 799 800 785 779 779 778 779 778 777 778 780 784 779 780 784 772 769 775 780 782 778 781 773 773 769 761
848 845 841 839 837 834 830 828 827 825 823 820 816 813 809 805 802 801 801 801 799 798 800 785 782 781 779 778 780 773 775 778 781 775 775 776 766 769 773 777 779 775 758 765 768 775 765
846 842 840 837 833 831 828 827 825 823 822 819 816 813 810 804 805 804 804 800 799 800 816 786 784 779 778 781 778 772 774 775 773 770 773 759 762 767 775 770 771 765 754 760 763 769 765
843 841 838 835 832 830 827 824 822 821 820 817 816 815 811 807 805 805 801 799 800 814 824 792 783 778 779 776 773 772 772 772 766 766 764 757 750 752 750 752 760 751 754 753 755 755 747
841 840 838 835 832 829 826 824 821 819 818 816 815 811 809 807 807 803 800 799 817 824 788 786 785 778 780 776 770 769 768 770 765 758 758 748 744 743 745 750 751 754 754 763 762 736 749
840 839 838 835 831 829 826 823 820 817 815 817 815 810 808 807 806 803 801 810 833 807 793 788 782 780 780 775 773 771 767 761 763 763 755 751 748 739 738 743 735 747 745 765 763 741 730
841 839 837 834 831 829 827 824 820 817 816 815 813 809 808 808 806 804 808 841 828 808 799 794 786 784 780 774 780 771 764 763 759 761 754 748 739 731 736 733 729 735 740 731 754 741 740
841 839 837 835 831 828 824 821 818 816 815 812 811 807 809 808 805 804 820 813 808 803 800 796 795 792 802 796 785 778 770 755 756 757 760 751 750 738 735 731 733 732 739 747 738 745 722
841 838 837 835 833 828 825 822 819 816 815 813 813 814 808 808 806 813 832 822 809 801 799 798 800 797 802 802 796 785 777 763 760 759 758 755 753 745 737 730 732 738 745 744 752 748 735
842 840 839 836 834 830 826 824 820 816 815 813 814 821 812 806 818 823 823 818 810 805 799 799 799 799 803 793 790 797 784 769 766 768 761 759 753 753 746 735 734 734 744 743 753 755 752
844 842 841 838 835 832 828 825 820 817 817 816 818 816 812 810 828 839 820 817 813 809 807 801 799 794 791 793 786 783 777 767 766 765 765 762 758 756 758 746 743 746 749 744 747 754 750
844 842 842 840 837 834 832 827 823 819 818 816 819 829 819 819 826 825 825 820 811 808 811 809 804 801 799 797 792 786 780 768 769 767 758 765 764 755 749 750 744 751 741 741 753 749 744
845 843 842 840 838 836 834 829 825 822 819 820 824 836 830 838 837 826 826 827 819 821 814 809 807 806 810 804 795 787 782 778 768 762 763 765 761 755 747 746 747 745 743 739 742 743 745
844 843 842 841 838 837 836 832 827 823 820 821 832 833 831 833 830 825 821 837 827 824 825 821 815 811 812 809 803 790 785 780 773 764 763 764 761 753 749 744 742 739 736 733 731 729 733
843 843 843 842 839 837 836 833 829 826 823 825 828 828 831 838 838 841 837 831 831 825 818 813 813 815 808 800 795 786 780 775 772 768 764 761 762 759 749 746 745 747 733 728 727 739 739
843 843 842 841 840 838 836 834 831 828 827 828 828 829 832 844 841 842 828 827 824 821 822 812 811 815 800 794 787 777 772 767 766 764 765 761 758 757 755 759 784 731 732 732 745 757 761
841 842 841 840 838 837 835 834 831 830 830 829 830 829 833 846 835 830 832 829 823 822 819 812 804 802 800 797 800 799 787 776 771 771 766 761 757 753 754 766 747 737 742 744 743 767 772
839 840 839 838 837 835 835 833 832 831 830 829 829 828 829 836 836 824 825 830 832 834 824 813 803 800 800 803 819 825 817 808 786 779 770 765 764 760 780 757 761 757 763 764 761 754 779
836 837 837 836 836 834 833 832 831 829 828 828 828 828 829 827 823 824 827 824 824 822 820 823 814 806 807 820 840 821 813 796 784 784 773 775 768 765 760 746 755 789 778 763 737 781 787
834 835 835 834 833 833 832 830 829 828 827 827 827 826 827 826 821 819 819 820 818 817 818 814 812 813 811 821 812 801 818 811 810 802 789 785 778 766 774 777 759 795 775 781 811 803 799
831 832 833 832 831 831 830 828 827 826 825 824 824 824 825 825 819 816 814 814 813 812 813 810 810 812 809 812 806 803 798 822 820 806 793 791 808 791 796 796 812 813 816 819 816 810 802
Wind_Speed
12 12 12 13 12 12 12 13 14 13 14 16 17 17 17 17 16 15 15 14 13 12 11 11 10 11 8 3 7 6 10 10 6 4 3 3 2 4 5 4 2 4 3 3 4 7 8
12 13 12 12 13 13 13 14 14 15 15 16 16 17 18 18 18 16 16 14 13 11 10 9 9 9 3 4 2 10 12 10 5 5 2 2 3 1 3 2 3 1 4 8 8 6 7
11 11 11 12 12 12 12 13 15 15 16 16 16 17 18 18 17 17 17 15 13 12 10 8 6 5 3 13 3 8 11 6 5 5 4 4 4 2 3 1 2 2 6 6 4 2 4
9 11 12 13 13 15 12 14 15 15 15 16 18 18 18 18 19 19 19 16 14 12 9 6 4 2 6 4 4 9 7 5 4 3 4 6 4 3 2 1 2 2 2 4 1 2 1
12 12 13 14 14 15 15 13 15 16 16 15 18 18 20 21 20 20 21 16 13 8 6 4 3 3 7 2 4 10 9 4 4 3 2 4 3 3 2 3 4 5 3 3 8 4 1
12 13 14 15 15 16 16 16 15 15 16 16 17 20 23 24 23 23 16 13 4 1 3 4 1 1 5 2 3 9 10 6 2 2 1 0 1 2 3 4 4 4 3 3 6 2 5
12 12 14 15 16 16 17 17 15 14 15 17 18 20 23 27 27 19 15 3 5 3 1 6 4 3 2 1 3 3 9 6 2 2 3 2 4 9 10 11 2 4 1 4 5 10 8
15 16 16 14 15 15 16 17 16 15 16 17 19 21 24 27 22 12 10 4 4 5 9 7 9 6 10 2 2 2 12 5 4 6 2 3 11 8 6 5 6 3 9 9 8 12 8
16 17 17 17 17 17 17 18 17 16 16 17 18 21 24 28 9 10 7 8 9 6 4 6 3 2 4 5 3 5 8 3 4 6 9 9 3 7 5 3 5 10 10 9 7 7 7
17 19 17 16 16 16 16 16 17 18 17 18 18 19 22 26 3 11 1 12 9 2 3 4 4 4 2 1 4 4 15 5 3 7 11 9 9 8 6 8 9 7 14 16 10 2 3
17 16 16 16 16 17 16 16 15 17 18 18 18 18 19 17 8 4 9 14 7 1 5 5 3 2 1 2 5 2 5 3 8 7 5 6 5 6 7 6 10 9 4 10 9 7 2
11 12 14 15 16 17 15 14 13 13 16 14 18 17 18 11 7 8 14 10 1 5 4 5 2 2 2 4 3 2 5 6 5 8 12 15 4 6 9 5 11 2 2 7 7 5 6
11 12 13 15 16 14 15 16 14 14 15 15 16 15 15 10 7 14 11 3 4 5 4 7 4 2 2 3 3 4 3 4 3 4 4 5 10 4 7 2 2 3 4 3 3 4 5
10 11 13 14 16 16 15 14 15 12 13 14 12 15 9 6 11 10 6 5 6 3 3 4 5 10 3 5 1 1 3 5 11 10 4 3 5 8 6 5 3 6 5 3 4 3 2
12 11 12 13 16 16 16 16 17 14 11 12 12 10 3 8 9 8 4 4 5 3 4 7 9 4 4 3 2 4 4 3 3 8 5 4 3 1 6 5 1 2 3 0 2 7 5
10 11 12 14 15 16 15 16 16 11 10 9 10 6 3 8 8 4 4 3 2 3 5 4 3 4 3 7 6 5 4 3 2 2 1 1 4 1 3 2 1 2 2 3 2 4 4
10 12 13 15 16 18 18 17 16 14 11 8 6 3 4 8 6 5 3 4 4 4 4 3 4 4 4 3 2 3 5 6 7 5 2 4 3 3 5 1 2 1 1 0 2 2 3
10 11 13 14 16 16 18 17 17 13 7 7 4 3 8 6 3 2 1 2 6 6 4 3 4 3 5 2 5 3 4 4 5 4 7 5 3 3 7 5 4 1 2 1 1 4 2
9 10 12 13 16 17 17 17 13 13 11 8 2 3 5 4 2 3 3 4 3 5 6 4 4 4 2 3 5 4 4 4 8 4 4 4 1 5 7 2 3 2 3 4 1 2 7
7 10 10 12 14 16 16 18 16 10 8 5 2 3 4 4 2 3 6 4 9 4 3 4 7 5 5 7 4 7 11 5 8 9 15 2 3 8 11 4 3 9 14 11 5 4 6
5 6 8 9 10 14 15 17 20 14 7 2 3 1 1 4 3 6 3 4 5 6 3 5 5 6 11 5 10 5 8 19 11 11 3 2 5 6 11 11 9 13 15 16 12 11 9
5 6 8 9 12 14 15 16 17 20 7 6 2 2 2 3 2 3 2 3 4 5 2 6 5 12 7 6 10 19 17 7 8 4 4 3 5 7 13 7 11 13 12 15 14 13 9
4 5 7 9 10 11 12 14 14 17 11 5 2 2 2 2 3 3 2 3 6 5 6 5 7 7 11 10 8 17 17 20 17 11 9 4 2 2 4 3 5 6 6 5 2 9 5
2 5 6 6 8 8 8 9 10 11 10 5 2 3 2 3 1 3 3 4 6 8 6 12 9 3 6 9 13 11 12 15 14 13 9 9 10 3 4 2 2 2 3 5 11 10 13
1 4 5 6 8 9 10 10 8 7 7 6 2 1 2 3 3 6 1 4 7 6 6 6 6 5 6 6 4 7 5 7 4 0 3 5 3 3 2 3 4 2 4 5 4 6 11
2 3 4 5 6 6 9 8 11 6 5 4 5 3 0 1 4 1 2 3 2 3 5 5 4 5 4 1 3 2 3 4 7 10 3 2 4 2 2 2 3 3 10 13 9 3 13
5 3 4 5 6 6 8 6 6 5 4 5 3 4 2 2 2 4 1 3 2 2 3 4 6 6 4 3 3 1 3 2 4 5 7 6 4 2 5 4 1 11 18 12 2 5 17
4 3 5 5 6 8 8 7 8 8 7 6 6 7 3 2 4 6 3 4 4 3 2 4 3 2 1 4 1 2 1 3 2 4 3 2 4 2 3 3 2 20 5 7 7 9 12
4 4 6 6 6 7 8 9 9 9 6 6 4 4 6 5 4 4 12 16 12 8 4 2 2 2 2 2 2 2 3 2 3 3 3 3 2 3 4 3 5 6 9 4 7 10 13
Wind_Direction
23 21 21 18 16 11 8 4 3 0 359 357 353 354 352 351 343 334 328 325 320 313 306 303 307 318 330 297 259 173 166 164 161 149 143 147 145 159 181 170 165 201 257 270 249 276 267
17 18 16 11 7 2 359 1 359 3 358 354 354 350 348 347 343 337 334 326 319 310 302 298 306 318 313 270 308 175 183 175 172 147 116 90 164 169 118 188 186 223 264 266 260 233 238
20 13 5 0 0 358 358 359 353 354 356 356 353 350 346 342 337 335 328 320 310 304 299 295 296 316 284 252 289 198 193 196 173 157 134 136 130 111 140 173 291 320 317 309 234 190 244
10 6 4 358 354 353 350 350 349 351 353 348 349 349 345 341 338 333 325 313 306 298 289 278 281 270 249 284 295 189 181 150 170 165 159 163 149 102 122 250 2 357 7 348 321 159 278
9 4 358 352 353 349 345 341 344 348 347 346 342 344 346 341 331 325 320 315 297 273 260 250 236 157 258 299 229 206 191 173 189 208 213 160 116 143 47 83 7 6 227 221 312 196 189
0 356 353 349 350 347 340 343 339 340 344 340 340 344 343 340 331 326 328 318 318 261 205 210 193 318 275 242 198 190 196 167 168 223 48 237 50 195 186 179 222 201 202 250 256 257 213
348 347 340 341 343 340 340 337 338 340 333 334 338 342 343 343 337 338 345 338 8 357 260 206 207 232 351 324 145 164 170 140 97 184 229 227 244 225 205 200 108 93 121 273 257 263 309
334 333 325 324 326 330 328 327 331 330 329 330 334 340 342 346 341 3 352 50 32 294 302 267 265 270 269 298 277 134 157 160 159 222 216 266 257 256 202 207 230 250 285 279 280 271 199
331 327 321 321 319 322 324 321 322 325 322 326 329 337 341 346 353 2 57 29 340 329 291 300 224 235 279 183 270 213 155 158 193 219 224 232 212 51 149 199 214 236 246 247 227 336 273
331 322 321 323 323 319 314 316 311 322 318 322 326 334 340 348 6 348 47 346 342 2 333 303 1 350 2 48 273 203 187 156 226 236 216 244 250 236 233 256 203 248 227 229 245 227 238
327 329 332 326 322 322 320 318 310 310 311 312 322 332 340 349 326 1 319 329 333 68 358 303 330 290 353 200 302 177 186 194 244 206 177 231 189 207 216 226 165 230 179 193 203 197 270
336 350 344 344 335 333 338 329 319 322 318 320 316 326 336 334 335 335 328 325 324 42 281 328 283 286 298 211 239 168 197 249 272 247 222 246 214 240 229 186 192 264 286 250 206 195 246
359 4 354 357 358 345 339 338 336 332 328 315 308 317 332 335 337 337 335 35 21 108 316 318 303 289 234 277 297 209 212 190 263 281 236 275 238 214 197 275 168 174 270 319 357 204 226
10 7 358 355 357 357 350 342 339 328 331 333 323 321 332 348 341 342 348 41 60 235 311 329 312 314 270 3 311 289 263 250 218 225 270 270 317 175 153 220 200 194 182 168 270 217 282
29 21 9 4 2 359 355 355 353 3 348 337 329 319 6 356 354 353 59 38 208 239 291 314 320 337 321 22 264 305 248 259 274 203 238 270 241 175 183 230 113 142 194 127 290 245 253
32 24 14 9 5 0 355 353 352 6 353 328 327 321 15 356 356 26 71 244 260 230 331 322 288 1 303 322 336 356 307 262 264 204 229 324 285 218 236 257 347 232 13 344 227 292 280
36 32 28 20 15 11 5 5 5 0 359 344 327 358 358 348 349 46 118 249 303 299 283 311 299 292 263 292 258 287 266 302 9 342 312 324 219 318 347 161 217 218 83 267 198 252 300
33 31 27 23 11 8 11 8 9 11 356 350 32 339 344 3 46 58 3 283 313 300 342 333 314 286 226 284 270 279 264 270 10 312 330 354 343 274 246 317 247 144 152 144 161 297 270
35 30 25 22 21 14 11 9 13 13 12 339 8 297 354 343 71 324 311 300 301 337 336 303 292 267 317 270 291 245 301 320 323 280 8 347 332 301 327 9 36 97 201 228 207 219 233
32 24 15 12 9 13 16 17 11 10 14 346 51 351 335 39 21 59 340 293 334 312 261 326 266 321 346 330 273 309 294 299 345 320 304 260 238 251 274 262 280 280 279 280 204 262 276
21 10 3 0 6 4 360 11 16 8 352 2 39 303 70 324 341 349 303 314 323 350 333 309 330 5 346 299 303 248 312 304 277 281 299 191 261 266 266 266 274 274 272 277 260 249 255
348 16 19 19 25 18 12 11 12 13 4 69 75 39 15 286 276 333 312 294 19 310 286 311 321 321 319 291 284 298 299 288 267 282 218 221 272 281 273 241 255 268 268 258 273 274 256
15 29 16 4 16 14 6 5 16 20 25 78 74 78 101 306 328 43 270 20 300 347 282 245 295 312 303 272 263 276 269 269 262 275 267 253 231 255 273 302 311 286 266 244 301 43 335
28 8 1 350 336 332 343 344 12 16 24 52 75 105 71 277 60 219 313 307 278 297 270 290 297 204 258 319 299 276 269 267 262 262 250 266 270 270 279 17 300 286 10 51 94 53 20
342 326 317 335 348 348 350 340 333 2 20 29 28 81 110 279 183 295 270 218 279 287 280 258 281 231 330 314 337 342 339 359 343 22 343 274 273 278 270 193 290 95 22 7 351 76 20
298 319 332 341 337 357 343 342 9 359 359 329 317 274 55 130 261 230 251 209 282 286 324 268 303 324 9 298 39 24 293 264 331 345 337 17 292 239 7 251 244 26 329 327 301 156 14
233 294 303 317 323 320 313 320 343 341 333 302 302 285 200 284 249 142 191 302 178 245 254 304 327 345 34 16 30 270 291 223 330 321 319 326 327 239 282 288 81 343 316 307 252 328 339
244 277 294 311 323 326 326 330 329 315 312 333 292 277 216 231 264 197 207 213 276 247 262 297 328 320 338 25 248 312 299 270 336 260 254 264 319 333 338 319 297 355 19 48 318 313 326
231 273 289 304 314 312 318 320 322 306 318 313 273 291 240 226 267 267 271 274 272 287 260 237 245 270 326 328 333 286 270 330 187 289 325 337 356 303 11 24 34 46 80 17 330 323 330